OpenBCM V1.13 (Linux)

Packet Radio Mailbox

DB0FHN

[JN59NK Nuernberg]

 Login: GUEST





  
F1EBE  > KEPLER   20.02.03 23:27l 105 Lines 5488 Bytes #999 (0) @ EU
BID : 22347_F8KOH
Read: DB0FHN GUEST
Subj: 2L Satell Amat 050.day
Path: DB0FHN<DB0ZWI<DB0HST<F6GGY<F5ZMJ<F5KBW<F1HCI<F6KDS<F5KCK<F8KAE<F8KOH
Sent: 030220/0840Z @:F8KOH.FNOR.FRA.EU #:22347 [Vernon] FBB7.00i $:22347_F8KOH
From: F1EBE@F8KOH.FNOR.FRA.EU
To  : KEPLER@EU


AO-7                    
1 07530U 74089B   03049.69169250 -.00000029  00000-0  10000-3 0  1535
2 07530 101.7618  97.4779 0012275  77.6699 282.5749 12.53564392293208
AO-10                   
1 14129U 83058B   03050.37921519 -.00000303  00000-0  10000-3 0  9177
2 14129  25.9543 164.1610 6026559 329.0466   6.3565  2.05869657120083
UO-11                   
1 14781U 84021B   03050.22057023  .00001870  00000-0  26638-3 0   743
2 14781  98.1181  24.1478 0008606 203.0285 157.0541 14.78004822 16339
UO-14                   
1 20437U 90005B   03049.70846109  .00000176  00000-0  82003-4 0  1679
2 20437  98.2733  93.3157 0010121 198.2743 161.8077 14.31238591682516
AO-16                   
1 20439U 90005D   03049.58354644  .00000222  00000-0  99095-4 0  8549
2 20439  98.3176 104.8808 0010370 205.1190 154.9504 14.31472797682539
DO-17                   
1 20440U 90005E   03050.55084886  .00000238  00000-0  10464-3 0  7287
2 20440  98.3375 109.7029 0010314 201.7424 158.3330 14.31751247682749
WO-18                   
1 20441U 90005F   03050.19339292  .00000192  00000-0  87813-4 0   153
2 20441  98.3331 108.5692 0011155 202.9733 157.0952 14.31554490682674
LO-19                   
1 20442U 90005G   03049.68253852  .00000221  00000-0  98272-4 0  9662
2 20442  98.3479 111.1040 0011241 204.7721 155.2920 14.31717584682656
FO-20                   
1 20480U 90013C   03049.93556543  .00000011  00000-0  97569-4 0  4697
2 20480  99.0470  12.6088 0540649   3.0521 357.3664 12.83330411610567
RS-12/13                
1 21089U 91007A   03049.90466873  .00000078  00000-0  67049-4 0  4996
2 21089  82.9228 181.1283 0027875 287.2823  72.5281 13.74404516603838
UO-22                   
1 21575U 91050B   03050.20306704  .00000434  00000-0  15319-3 0  7299
2 21575  98.1410  42.2926 0008291 126.4085 233.7868 14.39156815608370
KO-23                   
1 22077U 92052B   03049.95635298 -.00000037  00000-0  10000-3 0  2133
2 22077  66.0872 124.9187 0015562 273.5841  86.3395 12.86408451494358
AO-27                   
1 22825U 93061C   03049.96260516  .00000183  00000-0  88790-4 0  5083
2 22825  98.2749  79.6392 0007443 257.4625 102.5726 14.28943912489934
IO-26                   
1 22826U 93061D   03050.55290949  .00000207  00000-0  97809-4 0  3125
2 22826  98.2762  81.3165 0008030 257.9086 102.1206 14.29167221490064
KO-25                   
1 22828U 93061F   03049.62307019  .00000184  00000-0  88161-4 0  4294
2 22828  98.2711  80.6959 0009093 236.1851 123.8468 14.29508818458135
POSAT                   
1 22829U 93061G   03050.54201427  .00000284  00000-0  12633-3 0  4543
2 22829  98.2721  82.1750 0008954 233.1945 126.8425 14.29769880490195
RS-15                   
1 23439U 94085A   03049.29359592 -.00000042  00000-0  24083-5 0  6825
2 23439  64.8151  41.9255 0146804 115.2566 246.3616 11.27547528335565
FO-29                   
1 24278U 96046B   03049.98530178  .00000027  00000-0  65133-4 0  5611
2 24278  98.5351 201.1475 0350170 215.3253 142.4226 13.52872814321360
TO-31                   
1 25396U 98043C   03050.51986494 -.00000043  00000-0  00000+0 0  8247
2 25396  98.6274 127.6098 0003770 124.1545 235.9993 14.23511162239667
GO-32                   
1 25397U 98043D   03049.97952289  .00000091  00000-0  59533-4 0  1404
2 25397  98.6224 125.9592 0002080 127.9193 232.2176 14.22960239239559
SO-33                   
1 25509U 98061B   03050.35047537  .00000955  00000-0  17903-3 0  7830
2 25509  31.4306 148.7509 0358145 309.6056  47.3506 14.27438028225428
PO-34                   
1 25520U 98064B   03049.75708716  .00003108  00000-0  15701-3 0  6589
2 25520  28.4602 222.6036 0005471 351.2958   8.7540 15.13892381237613
ISS              
1 25544U 98067A   03050.55039097  .00028468  00000-0  36886-3 0  7064
2 25544  51.6324 251.0580 0012257 221.8698 248.1451 15.58559398242659
UO-36                   
1 25693U 99021A   03050.36297434  .00000730  00000-0  12425-3 0  7177
2 25693  64.5594   8.3551 0020430 316.2188  43.7295 14.76393434206372
OO-38                   
1 26063U 00004C   03049.69465038  .00000194  00000-0  87593-4 0  7301
2 26063 100.2129 104.2979 0036857 286.9251  72.7887 14.35482047160417
SO-41                   
1 26545U 00057A   03049.95148637  .00001383  00000-0  20193-3 0  4160
2 26545  64.5588  30.7456 0052096 238.6753 120.9242 14.78987773129284
MO-46                   
1 26548U 00057D   03049.90590593  .00001942  00000-0  26259-3 0  4205
2 26548  64.5576  23.7715 0045362 238.0797 121.5897 14.81279344129425
SO-42                   
1 26549U 00057E   03049.44651294  .00001507  00000-0  22294-3 0  6957
2 26549  64.5510  36.4102 0056598 238.8831 120.6710 14.77923825129121
AO-40                   
1 26609U 00072B   03046.24037137 -.00000118  00000-0  10000-3 0  3115
2 26609   8.0800  64.6767 7942000 144.0329 312.8612  1.25596569 10543
NO-44                   
1 26931U 01043C   03049.94511061  .00000192  00000-0  10827-3 0  4518
2 26931  67.0473 254.6460 0005013 266.1623  93.8905 14.29115946 72401
NO-45                   
1 26932U 01043D   03049.92310932  .00000142  00000-0  88242-4 0  4322
2 26932  67.0542 254.4074 0004852 242.3575 117.7034 14.29294969 72424
AO-49                   
1 27605U 02058A   03049.91988211  .00001574  00000-0  27263-3 0   711
2 27605  64.5514 196.1692 0035532 113.1583 247.3266 14.71377552  8865
SO-50                   
1 27607U 02058C   03049.84668437  .00001556  00000-0  27847-3 0   606
2 27607  64.5501 196.8344 0037374 109.9735 250.5391 14.69908832  8843



Read previous mail | Read next mail


 11.09.2026 15:57:36lGo back Go up